{"data":{"norad_id":53417,"intl_designator":"2022-097AF","name":"STARLINK-4484","alt_names":[],"object_type":"PAYLOAD","status":"ACTIVE","operator":null,"country":"US","launch_date":"2022-08-10","launch_site_code":"AFETR","launch_vehicle":null,"mission":null,"orbit_class":"UNKNOWN","rcs_meters":null,"size_class":null,"mass_kg":null,"dimensions":null,"purposes":["comms"],"wikipedia_slug":null,"has_3d_model":false,"image_url":null,"decayed_at":null,"tle_current":{"epoch":"2026-09-20T04:00:03.000096Z","epoch_age_seconds":104256,"freshness":"FRESH","line1":"1 53417U 22097AF  26263.16670139  .00055630  00000+0  20888-2 0  9998","line2":"2 53417  53.1609 318.8649 0001526  60.5782  11.8757 15.26687138  5783","mean_motion":15.26687138,"eccentricity":0.0001526,"inclination_deg":53.1609,"raan_deg":318.8649,"arg_perigee_deg":60.5782,"mean_anomaly_deg":11.8757,"bstar":0.0020888,"rev_number":578,"period_min":94.32187932666,"perigee_km":484.67652379845,"apogee_km":486.77137416008,"semimajor_km":6863.8609489793,"source":"CELESTRAK","updated_at":"2026-09-20T09:00:40.229066Z"}}}